Theta_e
311 312 313 312 312 313 313 311 314 317 316 318 319 317 320 320 315 316 316 314 313 315 316 316 315 315 316 316 313 312 313 313 313 313 314 314 314 315 316 315 315 315 315 314 314 314 314 314 314 314 314 314 314 314 314 314 315 315 315 315 315 314 315 315 315 315 315 316 316 315 316 316 316 315 314 314 314 314 314 314 314 314 314 315 316 317
311 312 312 312 312 313 313 313 313 313 313 314 317 317 318 320 318 314 315 315 312 314 317 316 315 315 315 315 312 311 312 312 312 312 313 314 314 315 315 315 315 315 315 315 315 315 315 315 314 314 314 314 314 314 314 314 314 314 314 314 314 314 314 314 314 314 314 315 315 315 315 315 315 315 315 315 315 315 315 315 314 314 314 315 316 317
311 311 312 312 311 312 313 313 313 313 314 315 317 317 317 319 318 314 314 316 314 314 317 317 316 316 316 316 312 310 311 313 314 314 314 314 314 315 315 315 315 315 315 315 315 315 315 315 315 314 314 314 314 314 314 314 313 314 314 313 314 314 314 314 314 314 314 314 314 314 315 315 316 316 316 316 316 316 315 315 314 314 315 316 315 317
312 312 312 312 312 312 312 312 313 313 314 318 319 316 317 318 317 316 314 314 314 314 316 316 316 316 315 316 315 312 312 313 314 315 315 315 315 315 315 315 315 315 315 315 315 315 315 315 315 315 314 314 314 314 315 314 314 314 314 314 314 314 314 314 314 314 314 314 315 315 316 317 317 317 317 316 316 316 315 315 316 316 316 316 316 317
314 313 311 312 313 312 312 312 314 314 314 320 323 322 321 319 318 318 316 314 314 313 315 314 314 319 317 314 315 313 312 312 313 315 314 315 315 315 316 315 315 315 314 315 315 315 315 315 316 315 315 314 314 314 314 314 315 314 314 314 314 314 314 314 314 314 314 314 315 315 317 317 317 317 316 316 316 315 316 315 316 317 317 317 318 319
314 312 311 314 314 314 315 315 316 316 316 318 322 324 324 321 320 320 318 318 315 314 317 313 313 327 330 319 314 313 312 312 313 312 312 315 316 315 316 315 315 315 314 315 315 315 316 315 315 315 315 315 315 314 314 314 314 315 315 314 314 314 314 314 314 314 314 315 315 315 316 316 316 316 315 315 316 316 316 317 317 318 318 318 319 320
314 312 312 315 316 317 318 317 317 319 317 315 317 321 323 322 323 322 319 321 319 315 315 313 313 324 327 322 320 317 314 314 313 311 312 313 315 315 315 316 315 315 315 315 315 316 316 316 316 316 315 315 315 314 314 314 314 314 314 314 314 314 314 314 314 314 314 314 314 314 315 315 315 315 315 316 316 316 317 317 317 319 320 321 322 323
313 313 314 316 318 318 318 317 317 318 317 317 319 322 323 322 324 323 320 323 323 317 317 318 316 316 317 320 322 319 315 315 314 314 313 312 314 316 315 315 315 316 316 315 316 317 317 317 317 316 316 315 315 315 314 314 313 313 314 314 314 314 314 314 314 314 314 314 314 314 314 315 315 315 316 317 318 317 317 317 317 319 321 323 324 324
313 315 316 317 317 317 318 319 320 318 317 319 323 324 323 323 326 326 323 323 321 317 320 323 316 314 322 328 323 317 315 315 316 317 315 313 315 316 316 316 316 316 317 317 318 318 318 317 317 316 316 315 314 314 314 314 314 314 313 313 313 314 314 314 314 314 314 314 314 314 315 315 316 317 318 319 318 318 317 316 316 317 318 319 319 320
313 314 315 318 318 318 320 321 323 323 317 318 321 324 325 327 327 325 326 327 317 314 324 328 318 313 322 330 323 315 316 318 318 318 314 311 314 316 316 316 316 316 317 317 317 317 317 316 316 315 315 315 314 314 314 314 313 314 314 313 313 313 314 314 314 314 314 314 315 315 315 317 317 318 318 318 317 317 316 316 315 315 315 316 316 317
311 310 312 317 316 316 317 315 317 321 316 315 321 324 323 326 330 330 332 329 317 319 332 331 321 313 316 325 324 316 318 320 317 317 316 313 312 314 314 315 315 315 315 315 315 315 315 315 314 314 314 314 314 314 314 313 313 313 313 313 314 313 314 314 314 314 314 315 316 316 317 318 318 317 316 315 315 315 315 314 315 315 316 316 316 316
314 313 312 312 310 312 316 315 315 315 316 320 325 324 318 321 332 333 330 323 317 325 331 323 317 314 315 323 324 318 318 319 316 317 321 317 313 313 314 315 315 315 314 314 314 314 314 313 313 313 313 313 313 313 313 313 313 313 312 312 313 313 313 314 314 314 314 315 316 317 317 316 316 315 314 315 315 314 314 314 315 316 316 315 314 314
318 317 314 312 310 312 318 319 315 315 320 323 322 318 316 319 323 323 323 322 321 324 320 314 315 317 317 319 319 318 318 316 314 315 319 316 313 314 315 314 314 314 314 313 313 313 313 312 312 312 312 312 312 312 312 312 312 312 312 312 311 312 312 313 313 313 314 314 314 314 314 314 314 314 314 314 314 314 314 315 315 315 314 313 313 313
319 317 314 314 312 312 316 316 315 317 319 319 316 315 320 321 316 315 319 320 320 320 315 311 314 318 318 317 318 318 315 313 311 312 316 315 314 315 314 314 314 313 313 313 313 313 313 313 312 312 312 311 311 311 311 311 311 311 311 311 311 311 311 311 311 312 312 312 312 312 311 312 313 313 313 314 314 315 314 314 314 314 314 314 314 314
319 317 315 315 312 312 316 316 316 319 318 318 318 317 320 324 321 319 321 321 319 319 315 310 314 321 320 317 317 313 310 311 312 313 315 315 315 315 314 314 314 313 313 313 314 314 314 313 313 312 312 311 310 311 311 311 311 311 311 311 311 310 310 310 310 310 310 310 310 311 311 312 313 313 314 314 314 314 314 314 314 314 314 314 314 314
315 315 315 315 311 312 316 316 316 317 316 318 319 318 317 322 328 325 323 326 324 319 316 313 318 324 319 315 315 310 309 311 310 312 314 314 315 314 314 314 313 313 314 314 314 314 314 313 313 313 312 311 310 310 311 312 312 312 311 311 310 310 310 310 310 310 310 310 311 311 312 313 313 314 314 314 313 314 313 314 314 314 314 314 313 313
312 314 315 314 311 311 313 313 314 314 316 318 317 319 320 319 325 324 315 316 317 317 319 316 317 322 316 315 316 312 313 313 309 310 312 313 314 313 313 313 313 314 314 314 314 314 314 314 313 313 312 312 312 312 313 313 313 312 311 311 311 310 310 310 310 310 310 311 312 313 313 314 314 314 313 313 314 314 314 314 314 313 313 313 313 313
315 315 313 314 315 311 308 310 311 310 314 319 317 319 320 316 320 323 316 314 313 316 322 316 314 320 317 318 321 313 313 315 312 310 308 310 312 311 312 313 313 314 314 314 315 314 315 314 314 314 313 313 313 313 314 314 313 313 311 311 311 310 311 310 311 311 312 313 313 314 314 313 313 313 314 314 314 314 314 314 314 313 313 313 313 312
319 318 312 312 315 312 310 313 313 310 311 317 317 316 318 317 319 321 317 317 315 314 320 318 315 318 318 321 323 315 315 318 314 312 310 309 311 310 312 313 313 315 314 314 315 314 315 315 314 315 314 314 314 313 314 313 313 312 311 311 311 311 311 312 312 313 314 314 314 314 314 313 314 314 314 314 314 314 314 313 313 313 312 312 312 311
319 320 316 312 313 314 313 315 317 314 311 313 314 312 316 319 321 320 316 318 320 318 321 319 315 320 323 323 324 319 320 321 315 314 312 308 309 310 312 314 314 314 314 314 314 314 315 315 315 315 314 314 313 313 313 313 312 312 312 312 312 312 313 313 314 314 314 314 313 313 314 314 314 314 313 314 313 313 313 313 312 312 312 311 311 310
315 319 319 313 311 313 315 315 315 316 313 313 315 313 314 314 316 318 316 320 325 321 321 318 317 330 332 322 319 317 318 321 315 315 313 307 308 311 311 313 314 314 314 314 314 314 314 315 315 314 314 314 313 313 313 312 313 313 313 314 314 314 314 314 314 314 313 314 313 313 314 314 314 314 313 313 313 313 312 312 311 311 310 310 309 308
315 317 318 315 313 314 316 316 314 315 314 313 314 314 315 314 315 317 315 319 321 318 324 321 317 331 333 318 316 315 314 316 310 309 310 308 309 311 311 313 314 313 314 314 313 314 314 315 315 314 314 314 314 314 314 314 314 314 314 314 314 314 314 313 313 313 313 313 313 313 313 313 313 313 313 313 312 312 311 311 310 310 309 308 306 305
317 317 317 316 315 316 316 313 310 313 317 315 314 316 316 314 317 318 316 320 318 314 321 321 314 326 330 317 314 314 310 310 307 307 308 308 310 310 311 313 314 314 314 313 313 314 313 314 315 314 314 314 314 314 314 314 314 314 314 313 313 313 313 313 313 313 313 313 313 313 313 313 313 313 312 312 311 311 310 310 309 307 306 305 304 303
315 318 318 315 314 315 317 315 310 311 316 315 315 317 317 314 315 318 320 324 322 316 317 315 313 325 331 315 308 308 307 307 309 310 309 309 311 310 311 313 314 314 314 313 313 313 313 314 314 314 314 314 314 314 313 314 313 313 313 313 313 313 313 313 313 313 313 313 313 313 313 313 313 312 312 311 310 310 309 307 306 304 303 303 302 302
315 317 317 316 316 316 317 317 314 313 315 316 317 316 316 316 315 316 318 316 318 321 320 316 316 322 329 319 310 310 311 309 308 310 311 311 311 311 312 314 314 314 314 313 313 313 313 313 313 313 314 313 313 313 313 313 313 313 313 313 313 313 313 313 313 313 313 313 313 313 312 312 312 311 310 310 309 308 306 305 304 303 302 302 300 300
318 319 317 317 317 315 316 316 315 316 315 315 317 315 315 317 316 317 319 314 316 323 320 317 318 317 320 321 316 317 318 314 310 309 311 313 313 313 314 314 315 314 313 313 313 313 313 313 313 313 313 313 313 313 313 313 313 313 313 313 313 313 313 313 312 313 312 312 313 312 312 311 311 310 309 308 307 305 304 303 303 302 301 300 298 298
322 319 315 316 315 314 315 316 316 317 315 314 317 317 316 317 316 319 320 316 318 322 319 320 321 315 314 317 317 318 320 318 313 308 309 313 314 314 314 314 315 314 313 313 313 313 313 312 313 313 312 313 313 313 313 313 313 313 313 313 313 312 313 312 312 312 312 312 312 312 311 310 309 308 307 306 305 304 303 302 301 300 299 298 298 298
322 316 314 317 315 314 318 318 315 316 316 315 316 317 317 317 318 318 317 316 317 318 316 319 321 315 313 314 316 319 320 319 312 307 308 312 313 315 315 314 314 313 313 313 312 313 313 312 312 312 312 313 313 313 313 312 313 313 312 313 312 312 312 312 312 312 312 312 311 311 310 309 307 306 305 304 303 303 302 301 300 299 298 298 298 297
318 315 316 317 314 315 318 319 316 316 317 316 315 316 317 317 317 317 316 315 316 315 313 315 317 316 313 313 315 316 315 315 313 309 309 310 312 315 315 314 314 313 313 313 313 313 312 312 313 312 312 313 313 313 313 312 312 312 312 312 312 312 312 312 312 312 311 311 311 310 309 307 305 304 303 303 303 302 301 300 299 298 298 297 297 297
314 317 317 314 313 315 317 319 319 317 317 317 316 315 315 315 316 316 315 314 315 315 314 313 314 314 313 313 314 313 311 311 311 310 310 309 310 314 314 314 314 313 313 313 313 313 312 312 312 313 313 313 313 313 313 312 312 312 312 312 312 312 311 311 311 311 310 310 309 308 307 305 304 303 303 303 302 301 300 299 298 298 297 297 297 297
312 317 316 313 313 314 316 319 321 319 318 317 317 316 315 315 315 315 314 314 314 314 314 314 314 314 312 311 311 312 312 311 309 309 310 310 310 312 314 314 314 313 313 313 313 313 312 312 312 312 313 313 313 313 312 312 312 312 312 312 311 311 311 311 311 310 310 309 308 306 305 304 303 303 302 302 301 300 299 298 298 297 297 297 296 296
314 316 315 314 315 315 316 317 317 318 318 316 317 318 316 315 315 314 314 313 313 314 314 314 314 313 311 311 310 311 311 309 309 310 311 311 310 311 313 314 313 313 313 313 313 313 312 312 313 313 313 313 313 313 312 312 312 312 312 311 311 311 310 310 309 309 308 307 306 305 304 303 303 302 301 300 299 298 298 297 297 297 296 296 296 296
316 316 316 316 316 315 315 316 315 317 317 315 316 317 316 314 313 313 314 314 313 314 314 314 313 312 312 313 312 312 310 309 310 312 312 311 310 310 311 312 312 312 312 312 313 313 312 313 313 313 313 313 313 313 312 312 312 311 311 311 311 310 309 309 308 307 307 305 304 304 303 302 302 301 300 299 298 297 297 297 297 296 296 296 296 295
315 317 317 315 315 315 314 315 316 316 315 314 314 316 315 315 314 314 314 314 313 312 313 312 312 312 313 314 313 312 311 311 311 312 313 313 312 311 311 311 311 312 312 312 312 312 312 312 312 313 313 313 313 312 312 311 311 311 311 310 310 309 308 308 306 305 305 304 303 302 301 301 300 299 298 297 297 297 297 297 296 296 296 296 295 295
314 316 316 314 314 316 314 314 316 316 314 314 316 318 316 314 315 316 315 314 313 313 313 313 312 312 311 311 311 311 311 311 311 312 313 313 313 313 312 312 312 312 311 311 312 312 312 312 312 313 312 312 312 312 311 311 311 310 310 310 309 308 307 306 305 303 303 302 302 301 300 300 299 298 297 297 297 297 296 296 296 296 296 295 295 294
313 314 314 314 315 315 313 313 315 315 314 314 316 317 314 313 314 315 315 315 314 314 314 313 312 312 310 309 309 310 311 311 311 311 312 313 313 313 313 313 313 312 312 312 312 312 312 312 312 312 312 312 312 311 311 310 310 310 309 309 308 307 306 304 303 302 301 301 300 300 299 298 297 297 297 296 296 296 296 296 296 296 295 295 294 294
311 314 315 313 314 316 314 313 316 317 315 314 315 314 312 312 314 314 314 314 313 313 314 313 312 312 311 310 310 311 311 311 311 312 312 313 313 313 313 313 313 312 312 312 312 312 311 311 312 312 312 312 311 311 311 310 309 309 309 308 307 306 304 303 302 301 300 300 299 298 298 297 297 296 296 296 296 296 296 296 295 295 294 294 293 293
309 313 315 313 314 318 317 315 316 316 314 313 314 314 311 310 311 312 313 314 312 311 311 312 313 313 311 310 310 310 311 312 313 312 312 312 313 313 313 313 313 313 313 312 312 312 311 311 311 311 311 311 311 310 310 310 309 308 308 307 306 305 303 301 300 300 299 299 298 298 297 297 296 296 296 295 295 295 295 295 295 294 294 293 293 292
310 312 314 314 314 316 316 315 314 314 313 313 315 315 312 309 309 310 313 314 312 309 309 310 312 312 310 309 310 311 313 314 313 311 311 312 313 312 313 313 312 312 312 312 312 311 311 311 311 311 311 311 310 310 309 309 309 308 308 307 305 304 302 300 299 299 298 298 297 297 297 297 296 296 295 295 295 295 295 294 294 293 293 293 292 292
312 312 313 312 313 314 313 313 313 312 312 316 318 314 310 309 310 313 316 315 311 310 311 310 310 310 310 309 309 311 313 314 313 311 311 312 312 312 312 312 312 312 312 312 311 311 311 311 310 310 311 310 310 310 309 308 308 307 307 306 304 302 300 299 298 298 297 297 296 296 296 296 296 295 295 295 295 294 294 293 293 293 292 292 291 291
313 314 313 311 312 313 313 313 313 312 314 319 318 310 307 310 312 314 316 314 310 310 312 311 310 310 311 309 309 310 312 312 311 311 311 311 311 311 312 312 312 311 311 311 311 311 311 310 310 310 310 310 310 309 308 308 307 306 305 304 303 301 299 298 297 297 296 296 296 296 296 296 295 295 295 294 294 293 293 293 293 292 292 291 291 290
313 314 314 311 310 312 313 313 314 314 314 316 313 307 307 312 315 314 313 311 310 311 311 311 311 311 311 310 310 311 311 311 311 311 310 311 311 311 311 311 311 311 311 310 310 310 310 310 310 310 309 309 309 308 308 307 306 305 304 302 301 299 297 296 296 296 296 296 296 296 296 295 295 294 294 294 294 293 293 293 292 291 291 290 290 290
312 313 313 312 312 313 312 312 313 314 311 310 310 309 309 314 316 314 311 310 311 311 311 312 311 311 311 311 310 311 311 310 310 310 310 310 310 310 310 310 310 310 311 310 310 310 310 310 310 309 309 308 308 307 307 306 305 304 302 300 299 297 296 296 296 295 295 295 296 295 295 295 294 294 293 294 294 293 293 292 291 291 290 290 290 290
312 313 314 313 312 312 312 311 313 313 310 309 311 312 312 312 313 312 310 310 311 312 312 312 311 311 311 311 311 311 310 310 310 310 310 310 310 310 310 310 310 310 310 310 310 310 309 309 309 309 308 307 307 306 306 305 304 302 300 298 297 296 295 295 295 295 295 295 295 295 295 294 294 293 294 294 293 292 291 290 290 290 290 290 290 290
311 311 312 313 312 312 312 313 312 310 308 308 310 311 310 310 311 311 311 311 311 312 312 311 311 311 311 311 311 311 310 310 310 310 310 310 310 310 310 309 310 309 309 309 309 309 308 309 308 308 307 306 306 305 304 303 301 300 298 297 296 296 295 295 295 295 295 295 295 295 294 293 294 294 294 293 292 291 290 290 290 290 290 290 290 290
311 308 309 313 313 311 311 310 309 307 307 308 310 310 310 310 310 311 311 312 311 312 312 311 311 312 311 311 311 311 311 311 311 310 310 310 310 310 309 309 309 309 308 308 308 308 308 307 307 307 307 306 305 304 302 300 298 297 297 297 296 296 295 295 295 295 295 295 295 294 294 295 296 296 294 292 291 290 290 290 290 290 290 289 289 289
311 307 308 313 314 312 311 311 309 308 308 309 310 310 310 310 309 310 311 312 312 312 311 311 311 311 311 311 311 310 311 311 310 310 310 310 310 310 309 309 308 308 308 308 307 307 307 306 306 305 305 305 304 302 300 297 295 295 296 296 296 295 295 295 295 295 295 294 294 294 296 297 297 294 292 290 290 290 290 289 289 289 289 289 289 289
310 307 311 315 313 311 311 310 308 307 308 309 310 310 309 309 309 310 310 311 311 311 310 310 310 310 310 310 310 310 311 311 311 311 311 310 310 309 308 308 308 307 307 307 307 306 306 305 305 304 304 304 303 300 297 295 294 294 294 295 295 295 295 295 294 294 294 294 295 297 298 296 294 291 290 290 290 289 289 289 289 289 289 289 289 289
308 308 313 315 312 311 310 308 305 307 309 309 309 310 310 309 310 309 310 310 310 310 310 310 309 310 310 310 310 310 310 310 309 309 309 309 309 308 308 307 307 307 306 306 306 306 305 304 304 303 303 303 302 299 296 294 294 294 294 294 295 295 294 294 294 294 294 295 297 297 295 293 290 290 290 289 289 289 289 289 289 289 289 289 288 288
308 312 314 313 311 311 311 309 308 311 313 311 309 309 310 309 310 310 310 310 310 310 310 309 309 309 309 309 309 309 308 308 307 307 307 307 307 307 307 306 306 306 306 305 305 305 304 304 303 303 302 302 300 298 296 294 294 294 293 294 294 294 294 294 294 294 295 296 296 294 292 290 290 289 289 289 289 289 289 289 289 289 288 288 287 287
308 312 312 311 311 311 310 309 308 309 311 309 308 309 309 309 309 310 309 309 309 309 309 309 309 309 308 308 308 308 308 308 307 307 307 307 307 307 307 306 306 306 305 305 305 305 304 303 302 302 301 301 299 297 296 295 294 294 294 294 294 294 294 294 294 294 294 294 293 291 290 290 290 289 289 289 289 289 289 288 288 288 288 287 287 286
Wind_Speed
14 5 5 7 6 6 6 7 8 8 6 5 5 4 5 5 3 3 2 4 2 5 5 7 7 8 7 8 11 15 15 16 18 18 22 22 22 25 25 23 23 23 22 19 20 22 22 23 22 21 21 22 23 23 23 24 24 24 24 24 22 21 20 20 20 20 20 20 19 19 19 19 18 17 17 16 16 16 16 16 16 15 15 15 16 16
13 7 7 8 8 8 8 7 8 8 7 4 5 5 5 4 3 3 2 4 3 3 4 3 4 9 9 8 11 13 12 14 20 19 22 25 24 25 25 25 25 23 20 17 19 21 21 23 23 23 22 23 24 25 25 25 24 24 24 24 22 21 21 21 20 20 20 20 18 17 16 15 15 15 16 15 15 15 15 14 14 14 14 15 15 15
9 7 8 10 10 8 7 8 8 8 6 4 5 6 5 4 2 2 3 4 4 2 3 2 3 9 9 7 10 12 13 18 26 25 24 26 26 26 26 26 26 24 22 21 21 21 22 23 23 24 24 24 24 25 25 25 25 25 25 24 23 22 22 21 20 20 20 19 17 17 16 15 15 15 15 15 15 15 15 14 13 13 14 14 14 13
5 5 9 11 11 9 6 7 9 7 4 3 4 5 4 4 3 1 3 3 3 2 2 1 1 6 7 5 8 14 19 20 24 28 27 27 27 26 26 26 27 26 25 24 24 24 24 24 24 25 25 25 25 25 25 26 26 26 26 25 24 23 22 22 21 21 19 18 18 17 17 16 16 17 17 17 17 16 15 14 13 14 14 13 13 13
4 5 12 10 8 10 7 7 7 6 4 2 4 5 4 5 3 2 2 1 3 3 1 3 4 5 5 6 8 12 16 16 20 26 28 30 29 26 26 26 27 27 27 26 26 26 26 26 26 25 23 23 25 26 26 26 26 26 26 25 25 24 23 23 22 21 21 21 20 20 20 19 20 20 20 20 18 17 15 13 13 14 14 14 14 15
5 7 13 9 6 9 7 6 7 8 4 3 2 4 6 8 5 5 6 4 4 4 3 2 1 5 5 6 9 8 7 11 16 20 25 31 31 29 29 27 27 27 27 26 26 26 27 26 26 25 24 24 25 25 25 25 26 25 25 25 25 25 24 23 23 23 23 23 23 23 23 23 23 22 21 19 16 14 14 13 14 14 14 15 16 16
4 5 8 8 8 9 6 4 6 7 6 2 4 2 6 8 7 8 7 4 3 3 3 2 4 5 6 4 8 6 5 10 12 12 20 28 29 30 31 28 27 28 28 28 27 27 27 27 26 26 25 25 24 24 24 26 26 26 26 26 26 26 26 25 24 24 24 24 24 24 25 24 23 22 20 17 15 14 15 15 15 16 16 16 17 17
3 6 6 6 7 7 7 4 5 7 7 4 3 4 9 9 8 8 7 4 3 3 3 4 4 3 4 5 8 4 5 6 7 9 14 21 24 27 28 26 26 26 27 28 29 28 28 27 27 26 25 24 23 23 25 26 27 28 28 27 28 28 28 27 26 26 26 25 24 24 24 23 23 21 19 17 16 16 17 17 18 18 18 18 17 17
2 7 8 7 6 4 6 4 4 8 6 5 4 7 8 8 8 7 6 4 1 2 2 5 1 1 5 6 7 2 2 4 7 9 11 17 24 25 26 26 25 24 24 25 27 27 27 27 26 25 24 23 23 25 26 26 26 27 28 28 28 29 29 28 27 26 26 25 24 24 24 23 23 22 20 19 19 19 20 19 19 19 19 19 18 17
1 5 7 8 6 4 5 2 3 6 4 4 5 6 5 5 5 5 5 4 3 2 4 6 2 2 5 6 4 2 1 5 8 8 9 16 23 24 25 25 25 24 24 25 26 26 26 27 27 27 27 26 26 26 27 27 27 28 28 28 29 29 29 28 27 27 26 26 25 25 25 25 23 21 20 21 21 21 21 20 19 18 16 15 14 13
3 0 1 3 5 5 5 2 1 3 6 7 6 7 6 6 5 4 3 4 3 2 6 7 3 3 3 6 4 4 4 6 7 6 7 11 16 20 21 21 22 23 23 24 25 26 27 27 28 29 29 29 28 28 28 29 29 30 30 30 29 29 29 28 27 26 26 27 26 26 26 24 22 21 21 22 22 21 19 18 17 13 10 10 10 10
5 3 2 1 4 6 6 4 5 3 6 7 5 5 5 4 5 5 4 3 2 5 6 4 2 3 3 5 5 5 6 5 7 6 7 8 12 16 17 17 18 18 19 20 22 23 25 25 27 28 28 29 30 30 29 29 30 30 31 31 31 30 29 28 27 26 26 26 26 25 24 22 21 21 22 22 20 18 16 14 12 9 7 7 8 8
4 3 4 3 1 5 6 4 4 4 4 5 5 6 5 2 3 2 3 1 2 5 4 2 0 2 5 7 8 9 10 8 7 8 9 11 15 17 16 15 14 14 15 16 18 20 21 22 23 24 25 26 27 28 28 28 28 29 30 31 31 30 29 27 26 25 25 24 24 23 21 22 22 23 22 20 18 16 13 11 9 8 7 6 6 5
1 5 4 2 2 4 5 5 4 1 1 5 6 6 5 3 3 1 3 2 3 4 3 2 1 2 4 6 10 13 15 14 10 8 9 14 18 18 16 14 13 14 14 15 16 17 18 19 20 21 21 22 23 24 24 24 24 25 26 28 29 29 27 26 25 25 24 24 23 22 22 23 23 22 20 17 15 12 11 10 8 7 7 6 4 3
4 2 3 2 1 2 3 3 5 6 5 5 5 6 6 5 4 4 4 3 3 3 3 3 1 3 4 4 7 9 11 11 9 9 10 14 16 15 14 13 13 14 14 15 15 15 16 17 17 18 18 18 19 19 19 19 20 20 22 24 26 27 27 26 26 25 25 24 23 22 22 21 20 17 15 13 12 11 10 9 8 6 5 3 2 2
6 3 3 2 2 2 3 2 2 6 4 3 3 6 4 6 5 3 4 6 5 1 1 2 3 4 4 6 8 4 3 2 5 8 11 14 14 14 14 14 13 14 14 14 14 14 14 14 14 14 14 14 15 16 16 17 17 17 19 21 23 25 26 26 26 25 24 23 21 20 18 17 15 13 12 12 12 11 9 7 6 4 2 1 1 1
5 2 4 3 3 1 1 1 1 3 3 1 3 4 5 5 7 5 3 1 4 2 2 2 3 5 3 6 8 1 2 2 2 5 10 14 15 15 15 14 13 14 14 14 14 13 13 13 12 12 12 13 14 16 16 16 16 16 17 19 21 23 23 22 22 21 20 19 18 16 15 14 14 14 14 13 12 10 8 6 5 4 3 2 2 1
5 1 4 1 1 2 1 1 3 3 2 4 3 5 4 2 4 4 2 2 3 2 3 2 4 4 2 3 6 2 3 7 6 6 8 11 14 16 16 15 15 14 14 14 13 12 12 12 13 13 13 15 15 16 17 16 17 17 18 19 20 20 20 19 19 18 17 17 16 16 16 17 17 16 15 13 11 9 7 6 5 5 4 4 3 2
5 3 2 1 1 2 2 2 2 3 2 4 3 3 4 2 1 2 3 1 1 3 4 3 3 3 3 5 4 2 7 9 8 8 7 10 15 18 17 17 16 15 15 14 14 13 13 13 13 14 14 15 16 16 17 17 18 18 19 19 19 19 18 18 18 18 18 19 19 19 19 18 17 15 13 11 10 8 7 7 6 6 5 5 4 3
4 4 2 2 1 1 2 0 4 2 1 2 1 1 2 2 4 3 3 4 3 3 4 3 2 3 5 6 5 8 11 11 10 8 8 12 18 20 20 20 19 18 17 15 15 14 14 14 14 14 14 15 15 16 17 16 16 17 18 18 18 18 18 19 19 20 21 21 21 20 19 18 15 14 12 11 9 9 8 8 8 7 7 5 5 4
3 4 3 1 2 1 2 2 5 7 4 2 2 3 2 1 2 1 1 3 4 3 4 2 2 5 6 5 7 10 10 9 10 9 9 16 21 22 22 22 21 19 18 16 16 16 16 16 15 15 15 15 16 16 16 15 15 16 18 18 18 19 20 21 22 22 23 22 21 19 17 16 14 13 12 11 11 10 10 10 9 8 7 5 5 4
2 3 5 2 1 3 3 4 2 4 5 5 4 6 6 4 4 3 3 2 2 3 4 4 3 7 6 4 6 8 7 7 9 11 12 18 23 24 23 23 21 19 18 18 17 17 17 17 16 16 16 16 16 16 16 16 17 17 19 19 20 21 22 23 23 22 21 20 19 17 16 15 14 13 13 12 13 12 11 11 9 8 7 6 5 4
4 4 5 2 3 4 5 4 2 3 1 3 2 4 5 4 5 5 5 3 2 2 2 3 3 7 6 4 4 5 4 4 6 11 15 17 20 23 23 22 20 18 19 19 19 18 17 17 17 17 17 17 17 17 17 18 18 19 20 21 22 22 22 22 21 21 20 19 18 17 16 15 15 15 14 14 14 13 12 11 9 8 7 6 5 4
5 4 4 2 1 2 5 4 3 2 1 2 3 3 4 3 3 5 5 4 3 3 3 2 4 7 6 4 4 5 5 4 3 7 13 15 16 19 22 21 20 20 20 20 20 19 18 18 19 19 19 19 19 18 19 20 20 21 22 22 22 21 21 21 20 19 19 18 17 17 16 16 16 16 16 15 14 13 12 11 9 9 8 6 5 4
5 2 4 5 2 3 3 3 3 2 2 2 3 2 3 3 4 3 2 2 1 4 6 5 5 6 5 4 4 4 5 5 4 4 8 12 14 18 21 21 21 21 22 22 22 21 21 21 20 20 20 20 20 21 21 22 22 22 22 22 22 21 20 20 19 19 18 18 18 18 18 18 18 17 16 15 14 13 12 11 10 9 7 6 4 3
7 4 5 6 6 6 5 4 4 4 3 2 2 3 4 5 6 5 2 2 3 4 5 5 5 7 6 6 6 6 5 5 6 6 7 11 15 18 20 21 22 23 24 24 24 23 22 22 21 22 22 22 23 23 23 23 23 22 22 21 21 20 20 20 20 20 19 19 19 19 19 19 18 17 16 15 14 13 12 11 10 8 6 5 4 3
4 2 6 8 9 10 7 4 5 8 6 5 5 6 7 7 7 6 3 4 5 3 3 5 7 8 9 7 6 6 5 5 7 7 9 12 15 18 20 21 23 24 24 24 24 24 23 23 24 24 25 25 25 25 24 23 23 22 22 21 21 21 21 21 21 21 21 21 21 21 20 20 19 18 17 16 15 14 12 10 8 7 5 4 3 2
4 3 7 8 11 9 7 6 8 10 9 10 9 8 8 8 8 8 7 8 7 4 6 8 8 11 13 10 7 8 7 5 7 11 14 15 16 18 20 21 22 24 25 25 25 25 25 26 27 27 27 27 27 26 25 23 22 22 21 22 22 22 22 23 23 23 23 22 22 21 21 20 20 19 18 16 15 13 11 9 8 6 5 4 2 1
4 6 7 7 10 7 7 9 10 10 9 9 11 12 11 10 10 10 12 12 9 8 11 14 14 16 15 11 9 10 9 9 11 15 16 16 16 18 20 22 24 25 26 27 27 27 27 28 29 30 30 30 29 27 26 25 24 24 24 24 24 24 24 24 24 24 24 23 23 22 22 21 21 19 17 15 14 12 10 9 7 6 5 3 1 1
3 5 5 7 8 5 6 9 9 10 8 7 10 12 12 12 13 14 15 16 14 13 16 17 15 15 15 10 8 10 12 14 14 11 11 14 18 21 22 24 25 25 27 29 29 29 29 30 31 32 32 32 31 29 28 27 27 26 26 26 26 26 26 25 25 25 25 24 24 23 23 22 21 19 17 15 13 12 10 9 7 6 4 2 1 1
2 3 3 6 5 4 6 8 8 9 9 7 8 9 11 12 14 16 17 15 13 13 15 13 10 14 14 7 6 11 14 12 9 9 13 18 20 23 24 25 25 25 27 28 30 31 31 32 33 34 34 34 33 31 30 29 29 28 28 28 27 27 27 27 26 26 25 25 25 24 23 22 20 18 17 15 13 12 10 8 7 5 3 1 1 2
2 2 2 5 4 5 6 8 7 4 4 2 5 9 13 14 14 15 14 12 11 11 13 11 10 14 8 4 7 15 13 9 10 14 19 20 21 24 26 26 26 25 26 28 30 31 33 34 36 37 37 36 35 33 32 31 31 30 30 29 29 29 28 28 27 27 26 26 25 24 23 22 20 18 16 14 13 11 10 8 6 4 2 2 2 3
5 5 3 5 6 5 4 8 6 6 5 4 11 15 18 16 13 10 9 11 13 13 11 11 14 13 4 5 9 13 7 10 15 20 22 23 23 26 27 27 26 25 26 27 28 30 33 35 38 39 39 39 37 35 33 32 32 31 31 31 30 30 30 30 29 28 27 27 25 25 23 22 20 18 16 14 12 11 9 7 5 4 3 3 3 5
6 6 4 5 5 3 2 7 6 3 6 12 10 10 13 13 13 12 13 16 17 13 11 11 13 10 4 7 12 12 8 13 20 24 26 27 26 26 27 26 25 24 25 26 27 29 31 34 37 39 40 39 37 35 33 32 31 31 32 32 32 32 31 31 30 29 28 27 26 24 23 21 19 17 15 14 12 10 8 6 5 4 3 4 5 6
7 6 5 4 3 2 4 8 5 7 13 8 0 5 10 12 14 16 17 16 14 12 12 13 15 12 8 12 16 18 16 17 21 25 27 27 27 26 25 26 26 25 26 26 27 28 30 33 37 39 41 40 38 36 34 33 33 33 34 34 33 33 32 31 31 30 28 27 26 24 22 20 18 16 14 13 11 9 8 6 5 4 4 5 6 8
8 6 4 3 3 3 4 6 7 8 7 4 2 5 8 8 9 11 11 12 9 9 10 15 19 17 14 15 18 20 20 18 18 22 25 25 27 28 27 27 26 25 25 25 26 28 29 31 34 38 41 42 40 38 37 36 36 36 36 35 34 34 33 32 31 30 28 27 26 24 21 19 17 15 13 12 10 8 7 5 4 4 5 6 8 9
8 7 4 3 3 3 3 4 4 5 6 7 8 7 8 8 8 8 8 12 12 13 14 16 19 17 13 15 19 19 18 14 11 18 24 23 23 26 28 27 26 25 26 26 28 29 29 30 33 36 40 42 41 40 39 38 38 38 37 37 36 35 34 33 32 31 29 27 25 23 21 19 16 14 13 11 9 8 6 5 4 4 6 7 9 10
7 6 5 5 3 3 5 2 1 2 8 11 6 5 11 14 12 10 8 12 13 18 21 17 15 16 12 11 14 14 12 9 6 15 27 26 22 24 27 28 28 28 29 29 30 31 31 32 33 35 38 41 41 40 40 39 39 39 39 38 37 36 35 34 32 31 29 27 25 22 20 18 16 14 12 11 9 7 5 4 5 5 7 8 10 12
5 2 5 6 3 3 6 4 4 6 11 9 4 5 12 20 17 13 6 12 11 13 19 17 15 17 14 11 14 12 7 5 6 16 29 29 24 27 29 30 32 31 31 32 32 31 31 31 33 35 37 40 41 40 40 40 40 41 40 39 38 37 36 35 33 31 29 27 24 22 20 18 16 14 12 10 8 6 5 4 5 6 8 10 11 13
5 3 4 6 5 5 6 4 4 5 9 7 7 8 16 26 21 13 4 12 5 13 21 23 20 20 20 18 17 11 7 10 13 19 25 22 19 23 26 29 31 31 32 32 31 29 28 29 31 34 36 38 40 40 40 41 41 42 42 40 40 38 37 35 33 31 28 26 24 22 19 17 15 13 11 9 7 5 4 5 6 8 10 11 12 13
3 1 3 6 7 6 6 5 4 5 7 7 7 12 23 25 16 8 8 7 8 16 21 25 24 26 27 23 18 14 18 26 26 23 19 14 14 16 18 22 26 27 28 28 27 27 27 28 30 32 34 36 38 39 41 42 43 43 42 41 40 39 37 35 32 30 28 25 23 21 18 16 14 12 10 8 6 5 4 6 7 9 10 11 12 13
3 2 1 4 5 4 4 4 3 6 7 8 9 15 23 17 5 8 6 3 7 12 13 17 21 23 24 24 24 25 30 33 30 24 19 14 14 14 13 16 19 21 23 24 24 25 26 27 30 32 33 35 37 38 41 43 44 44 43 42 40 38 36 34 31 29 27 24 22 19 17 15 13 10 9 6 5 5 6 7 8 9 10 11 12 14
6 5 4 5 5 4 2 4 5 8 7 15 16 10 10 8 4 8 10 6 8 9 7 11 15 14 16 22 25 27 29 27 24 23 20 17 16 15 15 15 16 17 19 20 21 23 25 27 30 32 34 35 36 39 41 44 46 45 44 42 40 38 35 33 30 28 25 23 21 18 16 14 12 10 8 5 5 7 7 8 8 9 10 12 13 15
6 6 6 5 4 5 4 7 8 5 7 21 18 7 12 16 7 7 14 13 10 10 10 11 11 11 14 17 17 20 24 23 22 21 19 17 17 17 16 16 16 16 18 19 21 23 25 27 30 32 34 35 37 40 43 45 46 45 43 41 39 36 34 31 29 27 25 22 20 18 15 13 11 9 6 6 7 8 7 7 8 10 11 13 15 17
10 10 7 5 5 6 6 10 10 4 8 17 12 6 21 31 18 8 14 16 13 14 13 10 9 10 10 9 8 11 14 16 18 18 17 16 16 16 16 17 17 18 19 20 22 23 25 28 30 31 34 36 38 40 43 45 45 44 43 40 37 35 33 31 29 27 24 22 20 17 15 13 10 8 7 8 9 8 7 8 9 10 12 14 16 17
9 10 8 5 4 5 7 12 11 4 5 12 10 4 16 29 24 13 13 15 15 14 12 10 10 9 7 6 5 6 7 9 12 14 15 16 17 17 18 19 19 19 20 21 22 24 26 29 30 32 34 36 39 41 43 44 43 42 41 39 37 35 33 31 28 26 24 22 19 16 14 11 9 9 10 10 10 9 8 8 9 11 13 14 16 17
4 9 7 3 4 6 8 11 10 8 9 13 14 8 10 20 23 17 13 14 15 15 14 12 10 8 6 6 7 7 8 10 12 13 15 17 18 18 19 19 20 20 21 22 23 25 27 30 32 33 35 37 40 43 44 44 42 40 38 38 36 35 32 30 28 26 24 21 18 15 12 11 11 12 12 11 10 9 9 9 10 12 13 14 16 18
5 9 7 5 6 7 6 4 5 9 13 13 13 10 8 14 20 19 15 14 13 12 11 9 8 8 8 8 9 10 11 13 15 16 17 18 19 19 18 19 20 21 21 23 24 26 28 30 31 33 35 37 39 42 44 44 41 39 38 37 36 34 32 30 28 25 23 20 17 14 14 14 14 14 13 11 10 10 10 10 11 12 14 15 16 17
8 9 6 4 5 6 5 1 5 3 5 10 14 14 10 11 14 15 15 14 12 10 10 9 9 10 9 8 9 11 11 12 13 13 14 15 16 15 15 17 19 20 21 22 23 25 27 28 29 31 32 35 37 41 44 43 41 39 37 36 35 33 32 30 27 24 22 19 17 16 16 16 16 14 13 12 11 11 11 11 12 13 14 15 16 17
8 6 3 4 5 8 6 5 8 4 2 8 15 17 14 12 11 11 12 12 11 11 10 9 7 7 7 7 7 7 8 8 8 9 10 10 9 10 12 14 16 18 20 21 23 24 26 26 27 28 30 33 37 41 43 42 41 39 37 35 34 33 31 29 27 24 22 20 19 19 19 18 16 14 13 13 12 12 12 12 12 12 13 14 15 16
7 6 6 6 6 6 5 9 13 9 3 4 10 13 14 14 12 11 10 10 10 9 9 8 8 8 8 8 7 6 6 6 7 8 9 9 10 11 11 12 14 15 17 19 21 23 25 26 28 29 31 34 38 41 43 42 41 40 38 36 34 32 30 28 26 24 23 21 21 20 19 17 16 15 15 14 13 13 12 12 12 12 13 14 14 15
Wind_Direction
190 197 213 209 214 212 213 184 177 212 216 183 174 185 192 181 231 261 287 306 113 147 219 206 216 248 237 245 244 220 206 210 218 217 210 207 207 208 211 217 221 226 232 232 227 227 227 226 225 225 224 224 223 221 219 219 219 221 222 225 226 225 226 226 226 228 229 230 231 232 235 239 243 248 254 258 260 262 264 266 266 269 272 272 272 271
189 202 218 206 206 203 210 195 186 222 238 218 187 191 215 194 211 261 266 313 8 142 241 242 225 259 246 240 252 229 206 213 217 215 214 212 209 211 213 218 224 228 230 225 223 223 225 225 223 222 223 223 224 222 221 220 220 221 222 224 226 225 225 227 228 230 234 237 239 241 246 250 251 253 258 262 265 267 269 271 273 275 275 273 272 272
192 215 213 204 207 205 212 203 200 224 223 215 201 182 212 210 179 290 314 334 14 134 255 325 217 253 256 246 256 231 207 217 219 216 217 215 212 212 214 219 222 222 221 218 219 219 220 222 220 219 221 223 226 226 225 224 223 223 223 224 225 226 227 229 231 234 237 242 245 248 251 252 253 255 258 262 262 264 268 274 278 276 272 270 271 274
195 218 207 204 206 210 230 215 204 220 218 191 171 170 211 205 156 219 285 330 21 112 182 45 288 270 272 263 266 242 222 220 223 222 223 222 219 219 221 223 222 218 217 217 217 219 219 219 218 218 220 223 225 226 227 227 225 226 227 227 227 228 230 231 233 237 239 241 244 247 249 250 252 253 254 255 256 259 265 272 274 273 271 272 274 275
202 192 192 200 207 209 223 225 205 193 225 255 164 158 182 185 171 169 169 91 18 5 96 71 354 299 261 243 257 250 232 225 225 223 223 225 226 228 230 229 226 223 222 219 217 218 219 219 220 221 222 223 226 227 228 229 229 230 232 232 232 232 233 234 236 237 238 238 239 239 240 241 244 248 251 254 260 263 267 271 272 271 269 268 269 269
209 184 183 196 214 207 201 212 202 172 189 283 222 183 174 171 154 123 119 92 51 332 288 103 352 291 284 248 244 249 240 233 228 220 220 225 225 227 229 228 227 227 225 224 222 221 221 221 222 223 224 225 228 230 231 232 232 234 235 236 236 235 234 236 237 237 237 237 237 239 241 243 247 252 258 263 269 271 270 272 270 266 262 260 261 263
202 173 175 192 196 195 187 193 204 167 151 241 257 209 144 137 127 133 136 112 125 235 283 94 166 257 317 295 255 243 223 237 234 225 226 227 225 223 224 226 225 223 222 222 222 223 223 223 223 224 227 229 229 231 231 231 230 231 233 234 236 237 237 237 237 237 237 237 238 241 245 250 253 257 261 264 266 265 265 265 263 257 254 255 257 260
161 155 172 186 175 183 183 192 210 156 138 216 241 120 124 129 140 154 142 125 181 197 333 17 135 224 292 273 274 250 200 247 249 237 237 230 225 221 219 220 219 219 220 219 218 218 220 222 225 227 230 231 229 229 229 228 228 229 230 231 234 236 238 237 236 236 238 239 241 243 246 249 251 253 256 258 259 259 258 258 257 251 246 248 251 256
128 164 180 171 154 176 186 214 212 144 128 232 198 128 137 142 145 148 125 113 97 116 299 310 120 187 268 269 301 324 170 253 248 234 236 229 223 219 216 215 213 212 211 211 211 213 216 220 224 227 229 228 227 226 227 227 228 228 229 229 231 234 236 236 235 234 236 238 240 242 244 244 246 247 248 251 252 252 253 253 251 246 244 247 251 253
244 186 182 162 161 192 187 222 213 152 146 201 143 97 83 77 94 105 108 109 63 81 237 262 206 179 271 280 300 326 229 244 244 242 239 231 226 223 221 219 217 216 214 213 214 215 219 223 227 230 231 230 228 225 225 226 227 228 228 228 230 231 233 234 233 232 233 234 236 237 239 240 241 242 243 246 248 248 248 247 246 243 245 252 259 261
307 235 164 144 156 167 151 116 64 144 145 129 96 67 53 32 37 51 58 92 83 279 249 248 213 161 272 281 243 219 227 218 219 245 252 239 229 223 221 219 218 219 221 222 224 224 226 228 230 233 235 235 234 231 227 225 226 227 228 228 229 229 230 231 231 231 230 231 232 234 236 238 239 241 243 244 245 245 246 245 243 241 245 257 264 268
357 23 329 360 136 133 114 73 32 74 120 105 90 94 76 9 13 21 358 46 129 251 260 258 215 155 220 264 248 248 261 231 206 224 237 221 206 202 202 205 209 214 220 225 229 231 231 231 232 232 233 235 236 236 233 230 228 227 228 229 229 228 229 229 229 229 228 229 230 231 233 235 237 238 240 241 242 243 244 243 238 233 235 241 244 250
8 334 307 338 198 157 125 96 37 22 60 82 109 119 104 24 23 17 297 318 217 242 266 286 268 191 231 254 262 271 275 256 226 224 226 203 186 186 191 199 210 219 227 231 231 233 234 235 235 235 234 235 236 237 236 235 232 229 228 228 229 229 228 227 226 226 226 226 226 227 228 228 230 232 234 236 236 236 234 231 225 219 217 215 216 226
351 310 306 355 287 216 157 140 149 188 119 128 142 139 135 123 85 226 251 281 253 253 281 295 286 259 267 268 251 250 257 256 247 243 233 207 193 192 197 205 219 229 234 236 234 233 234 234 236 236 236 235 235 235 234 233 231 229 227 227 227 227 226 225 223 222 222 222 223 222 222 222 223 225 226 227 224 219 215 209 201 197 201 205 211 225
165 257 251 181 245 212 184 169 160 154 155 173 163 139 150 156 146 190 212 199 222 259 293 299 275 192 199 258 247 246 266 263 241 232 222 207 201 197 199 209 219 227 231 234 237 238 237 237 236 236 235 232 231 229 226 225 224 223 223 223 223 222 220 219 218 218 218 219 219 217 215 216 217 216 213 207 198 192 188 186 185 190 202 217 243 273
156 202 275 297 313 187 180 240 116 123 148 215 145 120 163 180 147 150 184 178 170 169 278 249 239 210 202 272 275 268 304 271 193 197 189 185 190 191 198 209 213 220 224 228 234 238 240 240 238 237 234 227 221 216 214 213 213 214 214 214 215 215 215 214 213 213 213 212 212 209 207 206 203 195 186 178 175 174 174 176 180 187 204 223 248 286
151 211 319 344 343 358 143 269 36 123 172 178 131 165 207 168 121 121 192 167 109 148 244 208 244 288 307 291 292 272 187 252 211 191 180 177 183 191 201 208 210 215 219 223 231 235 237 238 234 229 221 215 211 207 205 203 202 203 202 203 204 205 206 207 206 204 202 200 199 194 187 182 176 171 168 168 170 170 170 174 177 182 195 201 200 191
153 136 323 3 147 314 344 65 44 42 113 123 160 203 194 118 96 116 162 12 61 196 266 219 214 275 286 266 316 10 213 257 260 228 209 194 192 199 204 206 209 213 215 219 225 226 228 228 225 220 213 209 206 205 203 198 194 193 193 194 195 194 193 191 190 187 185 182 178 173 168 166 165 166 168 168 169 170 171 176 181 186 190 184 170 154
136 111 310 326 185 264 340 88 92 10 38 134 180 182 129 142 207 145 155 180 174 219 272 282 238 243 210 221 295 282 222 239 238 225 225 214 205 204 203 200 204 209 212 216 219 219 220 219 219 217 212 208 204 203 202 197 193 190 188 188 186 184 181 177 174 171 169 167 165 164 165 165 165 166 168 168 169 172 175 181 183 180 177 169 161 152
136 126 218 295 285 258 360 107 177 197 342 40 67 88 92 149 177 174 170 160 158 203 247 296 311 254 233 216 209 216 219 222 220 213 219 219 212 207 203 199 202 208 212 215 215 215 214 213 213 211 208 206 201 199 199 195 189 183 180 177 174 172 169 166 165 164 163 163 163 165 165 166 167 166 167 170 172 176 178 178 176 171 170 165 156 145
134 120 166 293 323 187 184 228 188 175 174 133 127 161 186 143 128 157 205 138 128 164 205 234 275 264 251 213 201 221 226 219 212 206 216 222 217 213 210 206 207 210 212 214 214 212 211 208 206 203 201 201 196 194 192 187 179 174 171 167 164 165 164 163 163 163 163 163 163 166 166 166 167 167 171 173 174 177 176 172 170 167 164 159 150 137
125 113 140 143 206 194 232 259 215 194 187 168 174 183 184 171 126 142 238 228 147 169 178 175 236 269 257 213 214 229 229 230 222 209 215 224 220 217 215 212 213 214 212 212 212 211 209 205 203 200 197 196 192 188 184 179 175 172 168 165 165 166 166 165 165 164 165 165 164 166 168 169 170 170 174 175 174 175 173 168 166 161 156 153 147 137
112 101 114 129 196 213 262 273 249 254 209 143 200 193 171 163 132 150 208 229 206 211 157 142 228 269 262 229 232 241 242 265 247 219 221 229 225 220 217 215 215 216 213 212 210 211 209 205 203 200 195 192 189 186 182 178 175 173 171 168 169 170 169 168 167 167 168 169 168 169 171 172 173 173 174 175 174 172 168 166 162 156 154 153 148 142
120 101 105 90 322 301 308 312 309 299 109 150 235 191 155 178 158 158 179 170 174 200 163 164 247 267 272 260 254 263 268 289 282 226 224 227 221 217 216 214 213 213 212 211 210 211 208 205 203 199 195 192 188 185 182 179 177 176 175 173 173 174 174 172 172 172 173 174 173 173 174 175 174 175 175 173 172 169 166 164 160 157 158 157 155 150
156 124 121 114 70 358 337 323 290 256 192 206 240 186 144 134 124 137 148 121 194 213 171 175 235 252 270 295 301 295 299 297 284 240 220 218 212 211 212 211 211 212 210 210 210 210 207 204 201 198 195 191 187 185 183 182 181 181 180 179 178 178 177 176 177 178 177 178 177 176 176 177 175 174 174 172 171 170 167 165 163 163 162 158 152 143
159 154 147 138 151 180 194 212 207 183 181 221 211 166 164 158 155 165 163 151 230 236 165 173 235 253 274 317 326 315 314 295 269 237 218 220 217 213 211 209 210 210 210 210 210 210 207 203 200 196 193 191 189 188 187 186 185 184 183 182 181 182 182 180 180 180 179 181 181 179 177 177 174 173 174 173 172 171 168 166 165 162 160 154 146 139
125 178 179 169 183 189 179 175 151 131 148 200 199 175 180 189 174 156 145 182 207 219 199 215 240 256 262 273 292 289 271 258 258 240 223 222 219 215 213 211 210 210 211 212 212 211 207 202 199 196 194 192 192 191 191 190 188 187 187 185 183 184 186 183 181 182 182 183 183 181 177 175 174 174 174 174 173 171 168 166 165 162 162 161 158 157
105 210 198 188 200 189 142 148 154 142 161 191 192 186 190 192 172 165 198 211 189 192 241 240 233 247 253 239 229 249 249 238 246 238 227 222 218 216 213 210 209 209 210 212 214 213 209 203 200 197 196 196 195 194 192 191 190 190 191 190 187 186 187 186 184 183 183 183 182 181 178 175 175 175 175 175 172 171 170 169 170 172 173 172 173 186
128 200 203 195 206 189 137 152 160 155 170 184 187 193 194 187 178 186 212 217 189 193 232 232 222 234 247 236 216 225 226 225 241 242 231 222 219 217 213 210 209 209 210 213 215 215 210 206 203 200 199 199 197 196 194 193 194 194 193 193 191 189 188 187 186 185 184 183 182 181 179 177 176 176 176 176 175 175 176 178 180 181 181 182 192 268
150 199 193 176 197 204 167 170 168 165 173 181 191 196 191 187 191 199 214 220 209 210 229 234 232 242 247 236 214 223 231 237 249 249 229 223 223 218 213 212 212 213 216 217 218 217 213 209 207 204 203 203 201 200 199 197 197 197 196 195 192 190 188 188 188 187 185 184 182 181 179 178 178 178 179 180 182 182 182 183 184 184 185 191 240 318
166 202 167 144 174 222 203 189 179 172 178 191 202 203 193 191 200 208 216 221 217 224 241 248 258 261 252 223 209 237 241 235 232 225 224 229 227 217 212 213 217 221 225 224 221 219 215 211 210 209 208 207 206 204 203 202 201 199 197 195 193 191 189 188 189 188 186 184 183 181 180 180 181 182 183 185 186 185 184 184 184 185 191 213 295 314
150 174 114 118 166 229 214 186 172 126 107 185 228 217 201 195 202 210 214 214 207 219 241 249 252 255 246 151 214 240 229 204 210 221 228 232 227 219 216 218 223 229 233 230 225 222 219 215 214 213 212 212 210 208 206 205 203 201 198 196 194 192 190 189 189 188 187 185 184 183 183 184 185 185 186 187 187 186 184 183 184 189 207 247 289 304
143 146 138 140 178 236 212 164 144 66 55 249 235 216 203 201 204 209 219 222 210 205 218 229 238 245 208 143 232 243 193 183 219 228 233 237 232 225 223 225 231 239 240 238 233 228 225 222 219 218 217 215 213 211 209 209 207 203 200 197 195 193 190 188 188 189 187 185 186 185 185 186 187 187 188 189 188 186 184 183 192 204 229 260 286 305
143 146 161 161 176 230 139 117 99 97 214 235 233 199 193 198 196 202 219 223 214 209 217 233 247 251 178 177 232 242 204 208 228 235 240 244 240 233 230 231 237 245 246 244 240 236 232 228 224 221 219 218 216 213 211 209 208 205 201 198 195 193 191 189 188 189 189 187 186 186 186 186 187 188 189 189 188 188 188 190 202 220 249 280 298 310
154 150 158 166 164 167 124 109 121 208 226 239 113 148 186 196 193 205 224 228 218 216 230 248 259 252 210 204 229 242 242 240 241 243 246 247 246 243 241 241 244 246 247 244 242 241 238 233 228 224 221 219 217 214 211 208 205 203 201 198 195 193 191 190 189 189 190 189 187 187 187 186 186 188 189 190 191 192 195 200 214 241 272 295 306 316
157 154 150 157 146 139 133 144 183 230 258 290 272 194 191 189 190 207 241 254 232 209 219 238 247 247 233 228 236 246 257 263 258 252 251 249 248 247 246 248 250 249 249 251 252 251 248 243 237 231 225 221 217 214 212 208 205 203 199 196 195 193 192 191 191 191 191 191 189 187 187 186 187 189 191 193 195 198 203 213 232 264 287 304 314 322
150 150 154 183 172 146 152 186 231 304 307 269 243 213 177 172 178 185 229 254 234 208 213 227 241 249 242 236 242 248 258 269 272 262 256 250 246 245 245 247 249 249 249 254 258 257 253 247 241 234 228 223 218 215 212 208 204 202 199 196 194 194 193 192 193 193 192 191 190 188 187 187 187 190 194 196 201 206 215 231 255 280 297 310 319 326
157 160 164 182 195 112 117 155 294 275 253 244 226 171 167 171 166 155 192 250 245 220 217 223 239 249 240 228 235 237 242 255 266 259 256 251 241 240 241 240 241 244 247 250 253 252 247 242 238 234 229 224 219 215 212 208 205 202 199 197 195 194 194 194 194 194 192 191 191 189 188 188 188 192 197 200 206 215 228 252 275 294 307 316 324 329
122 130 144 161 192 142 141 184 191 207 246 240 155 138 170 165 150 125 162 254 257 211 208 215 230 243 238 216 211 205 203 230 247 255 256 254 246 241 240 239 239 242 244 247 251 252 248 243 236 230 227 224 222 217 212 208 206 203 201 199 197 196 195 194 194 194 192 191 191 189 189 190 190 193 199 205 214 225 243 270 291 306 315 320 325 328
82 78 143 173 204 184 169 204 209 229 254 220 162 178 170 156 140 116 185 253 223 161 196 213 218 232 235 218 204 191 188 221 244 259 260 260 256 248 244 243 244 245 247 248 250 251 248 243 236 230 227 225 223 218 212 207 205 203 202 200 198 196 196 195 194 193 192 191 191 190 190 191 191 195 202 210 221 235 258 286 303 313 317 319 322 324
99 134 174 189 204 191 179 207 247 260 243 208 181 176 158 143 136 155 210 228 152 157 198 213 215 228 232 217 199 203 225 235 244 258 265 265 264 255 245 245 247 248 250 251 251 250 246 241 237 234 230 226 222 217 212 207 204 203 201 200 198 196 195 194 193 192 191 191 191 191 191 191 193 198 206 215 228 247 277 298 305 308 311 313 317 321
171 151 151 183 192 191 176 184 248 272 235 180 157 162 156 146 169 209 195 149 154 173 196 205 213 229 233 222 217 226 240 244 245 252 259 261 262 259 251 249 248 249 251 250 250 248 243 236 232 228 225 222 219 216 212 207 204 202 201 199 198 195 194 192 192 191 191 191 191 191 191 193 195 200 207 217 239 269 286 292 295 299 304 310 316 321
170 155 183 200 178 164 167 174 212 265 219 154 138 141 168 179 210 191 176 179 199 202 204 208 215 224 228 229 233 237 243 246 246 250 255 256 257 260 258 256 253 252 253 251 247 244 240 234 230 225 221 219 215 213 210 207 204 202 200 198 196 194 192 191 191 192 191 191 193 193 193 195 197 200 209 229 258 272 277 279 286 297 305 312 318 319
176 170 189 212 182 157 180 197 208 247 180 159 154 164 197 200 201 176 186 201 211 214 224 226 220 218 223 232 241 241 241 244 246 250 253 254 255 258 257 256 255 253 252 249 244 240 235 232 228 223 219 216 212 210 208 206 204 201 198 197 195 193 192 192 192 193 193 193 194 194 195 196 197 203 221 245 257 258 262 273 287 300 308 313 314 314
202 191 170 181 192 176 193 216 216 207 169 175 180 186 192 198 206 198 196 207 213 214 221 219 204 202 209 215 225 232 238 244 248 249 252 256 257 257 256 255 253 252 250 247 242 237 233 230 228 223 219 215 212 210 207 204 203 201 198 196 195 194 195 194 194 194 194 195 196 195 195 196 200 219 240 246 246 249 258 275 290 300 305 307 308 311
204 185 149 145 200 215 239 240 226 196 165 187 197 200 194 200 207 205 199 205 207 205 202 187 172 171 172 179 203 223 234 246 251 252 254 256 256 256 255 252 248 245 243 241 238 235 230 227 224 221 218 214 211 208 205 201 201 201 200 197 196 196 196 196 196 196 196 197 196 193 196 207 224 240 241 236 237 245 260 276 287 294 298 302 308 315
211 180 159 150 180 197 235 243 225 214 213 201 196 201 199 200 203 202 195 194 191 186 180 173 172 183 202 224 244 252 256 261 263 262 260 260 258 256 254 252 248 244 240 238 237 235 230 225 221 219 217 213 209 205 201 197 197 199 201 200 198 197 197 196 197 198 197 196 195 197 211 230 237 233 227 228 236 249 263 274 283 289 296 304 312 318
183 173 178 188 184 194 226 239 203 208 215 205 195 196 193 198 203 203 198 195 191 188 193 204 222 241 252 261 264 263 266 268 265 263 262 261 259 255 252 250 247 242 238 235 234 233 230 227 223 219 216 214 209 203 198 195 194 196 200 201 199 198 198 197 197 197 196 196 201 214 228 231 225 219 220 228 240 252 263 272 281 290 299 307 313 317
143 160 182 181 191 232 263 39 93 120 208 208 204 200 194 198 205 206 211 219 225 231 240 249 260 267 270 269 261 257 252 246 243 244 244 245 247 247 246 245 243 241 239 237 236 235 233 230 227 223 219 216 211 203 197 195 194 195 199 201 200 199 199 198 197 197 198 204 215 223 222 216 213 216 223 231 240 250 260 270 281 292 302 309 313 317
141 165 176 149 190 236 245 185 161 157 231 220 209 206 208 211 212 214 220 228 235 243 247 250 253 250 237 218 212 216 217 216 220 225 227 231 238 243 245 244 241 239 238 236 234 233 232 230 228 225 220 216 210 203 199 197 196 197 198 200 201 201 200 200 200 201 204 211 215 214 210 209 213 219 225 232 241 250 260 271 283 293 301 306 312 319
170 182 178 168 196 226 208 181 183 182 160 169 185 196 207 213 216 220 221 221 225 229 228 222 213 206 199 195 197 211 230 241 248 249 249 251 251 251 251 250 247 244 243 239 234 231 228 225 223 221 217 213 207 203 201 200 199 200 200 201 201 202 202 203 204 205 207 208 209 208 209 212 217 221 226 233 241 250 261 272 283 291 298 305 315 324